User: anonymous   Login
Location: Tyler Bend Campground
(35.9875°N, 92.7606°W)
Time: 15:16:50
(UTC-05:00)
Language:

Iridium 39 - Orbit

View from above orbital plane
View from above orbital plane
View from above satellite
View from above satellite

Ground track
Ground track

The orbit data is extracted from the following two-line orbital elements,

1 25042U 97069D   16151.53138221 -.00000082  00000-0 -36309-4 0  9990
2 25042  86.3984 182.1812 0002427  93.8850 266.2623 14.34220785971464
Epoch (UTC): 30 May 2016 12:45:11
Eccentricity: 0.0002427
inclination: 86.3984°
perigee height: 776 km
apogee height: 779 km
right ascension of ascending node: 182.1812°
argument of perigee: 93.8850°
revolutions per day: 14.34220785
mean anomaly at epoch: 266.2623°
orbit number at epoch: 97146

The dashed part of the orbit path shows where the satellite is in the earth's shadow,  

DLR